GALAXY 15 (G-15)        
1 28884U 05041A   19259.44946580  .00000072  00000-0  00000+0 0  9994
2 28884   0.0321 260.8870 0001791 273.2063 209.8193  1.00272528 50903
SYRACUSE 3A             
1 28885U 05041B   19258.82827066  .00000120  00000-0  00000-0 0  9998
2 28885   0.0223 125.3056 0003763  46.6177 167.7317  1.00272930 51015
ARIANE 5 R/B            
1 28886U 05041C   19259.15422829 -.00000134  00000-0  10184-3 0  9997
2 28886   8.1473  50.2351 7186116 348.1295 249.1510  2.24336115114167
ARIANE 5 DEB [SYLDA]    
1 28887U 05041D   19258.60551394 -.00000200  00000-0 -12430-2 0  9997
2 28887   7.7086  25.1813 7169352  47.5840 353.8572  2.26472248115012